#timestamp,LO_Frequency,Hit,StdDev 
1577412015.6,286046994.9,N
1577412035.5,286046997.8,N
1577412055.3,286046994.0,N
1577412075.1,286046993.3,N
1577412095.9,286046993.5,N
1577412115.7,286046996.1,N
1577412135.5,286046996.1,N
1577412155.4,286046996.2,N
1577412175.2,286046993.5,N
1577412195.1,286046993.3,N
1577412196.0,286046993.3,N
1577412215.8,286046994.2,N
1577412235.6,286046995.1,N
1577412255.5,286046994.2,N
1577412275.3,286046992.1,N
1577412295.1,286046992.5,N
1577412315.9,286046990.1,Y
1577412335.7,286046994.3,P
1577412355.6,286046993.9,P
1577412375.4,286046993.4,P
1577412395.2,286046993.3,Y
1577412415.1,286046998.5,P
1577412416.0,286046998.5,N
1577412435.8,286047001.0,N
1577412455.7,286047002.6,N
1577412475.5,286047000.6,N
1577412495.3,286047000.2,N
1577412515.2,286047000.3,N
1577412535.0,286047000.5,N
1577412535.9,286047000.5,N
1577412555.8,286046998.5,N
1577412575.6,286047000.3,N
1577412595.4,286047001.0,N
1577412615.3,286047002.2,N
1577412635.1,286047002.5,N
1577412655.8,286047000.8,N
1577412675.7,286046998.5,N
1577412695.5,286046999.4,N
1577412715.4,286047001.2,N
1577412735.2,286046998.4,N
1577412755.0,286047000.9,N
1577412755.9,286047000.9,N
1577412775.8,286047000.9,N
1577412795.6,286047000.2,N
1577412815.4,286047001.7,N
1577412835.3,286047001.4,N
1577412855.1,286047002.2,N
1577412875.9,286047001.9,N
1577412895.7,286047002.5,N
1577412915.5,286047002.8,N
1577412935.4,286046999.8,N
1577412955.2,286047002.5,N
1577412975.1,286047005.9,Y
1577412976.0,286047005.9,P
1577412995.8,286047004.8,N
1577413015.6,286047002.9,N
1577413035.5,286047005.9,Y
1577413055.3,286046999.8,P
1577413075.1,286047001.1,N
1577413095.9,286046999.0,N
1577413115.7,286046998.4,N
1577413135.6,286046999.0,N
1577413155.4,286047001.2,N
1577413175.2,286046999.9,N
1577413195.1,286047004.3,N
1577413196.0,286047004.3,N
1577413215.8,286047001.3,N
1577413235.7,286046999.9,N
1577413255.5,286047000.3,N
1577413275.3,286047000.5,N
1577413295.2,286047000.9,N
1577413315.9,286046998.7,N
1577413335.7,286046998.6,N
1577413355.6,286046999.2,N
1577413375.4,286046998.9,N
1577413395.2,286046998.7,N
1577413415.1,286046999.2,N
1577413416.0,286046999.2,N
1577413435.8,286046999.5,N
1577413455.7,286046997.4,N
1577413475.5,286046996.7,N
1577413495.3,286046996.8,N
1577413515.2,286046997.9,N
1577413535.0,286046998.0,N
1577413535.9,286046998.0,N
1577413555.8,286046996.8,N
1577413575.6,286046997.9,N
1577413595.4,286046997.6,N
1577413615.3,286046997.0,N
1577413635.1,286046999.2,N
1577413655.8,286046994.9,N
1577413675.7,286046996.6,N
1577413695.5,286046994.9,N
1577413715.4,286046997.5,N
1577413735.2,286046997.0,N
1577413755.0,286046996.7,N
1577413755.9,286046996.7,N
1577413775.8,286046996.2,N
1577413795.6,286046996.2,N
1577413815.4,286046993.4,Y
1577413835.3,286046994.9,P
1577413855.1,286046997.3,N
1577413875.9,286046997.7,N
1577413895.7,286046997.5,N
1577413915.5,286046996.7,Y
1577413935.4,286046999.8,P
1577413955.2,286047002.6,N
1577413975.0,286047001.6,N
1577413975.9,286047001.6,N
1577413995.8,286047003.9,N
1577414015.6,286047004.0,N
1577414035.5,286047002.7,N
1577414055.3,286047000.5,N
1577414075.1,286046999.8,N
1577414095.9,286047001.3,N
1577414115.7,286047001.8,N
1577414135.5,286047002.0,N
1577414155.4,286047001.5,N
1577414175.2,286047003.7,N
1577414195.1,286047003.1,N
1577414196.0,286047003.1,N
1577414215.8,286047003.8,N
1577414235.6,286047001.7,N
1577414255.5,286047002.6,N
1577414275.3,286047002.7,N
1577414295.2,286047002.4,N
1577414315.9,286047003.7,N
1577414335.7,286047006.0,Y
1577414355.6,286047004.1,P
1577414375.4,286047003.7,P
1577414395.2,286047005.6,P
1577414415.1,286047001.3,N
1577414416.0,286047001.3,N
1577414435.8,286047002.0,N
1577414455.7,286047002.6,N
1577414475.5,286047002.8,N
1577414495.3,286047001.5,N
1577414515.2,286047003.7,N
1577414535.0,286047004.0,Y
1577414535.9,286047004.0,P
1577414555.8,286046998.2,P
1577414575.6,286047001.1,N
1577414595.4,286046999.2,N
1577414615.3,286046999.6,N
1577414635.1,286046999.2,N
1577414655.8,286046996.6,N
1577414675.7,286047002.7,N
1577414695.5,286047002.0,N
1577414715.4,286047005.9,N
1577414735.2,286047001.7,N
1577414755.0,286047004.2,N
1577414755.9,286047004.2,N
1577414775.8,286047003.8,N
1577414795.6,286047002.1,N
1577414815.4,286047003.8,N
1577414835.3,286047004.3,N
1577414855.1,286047004.2,N
1577414875.9,286047002.4,N
1577414895.7,286047000.9,N
1577414915.5,286046998.9,N
1577414935.4,286046998.7,N
1577414955.2,286046998.6,N
1577414975.0,286047000.0,N
1577414975.9,286047000.0,N
1577414995.8,286046998.9,N
1577415015.6,286046998.5,N
1577415035.5,286047001.0,N
1577415055.3,286047002.5,N
1577415075.1,286047001.3,N
1577415095.9,286047002.4,N
1577415115.7,286046998.9,N
1577415135.5,286046999.0,N
1577415155.4,286047002.7,N
1577415175.2,286047002.5,N
1577415195.1,286047001.4,N
1577415196.0,286047001.4,N
1577415215.8,286047004.0,N
1577415235.6,286047003.5,N
1577415255.5,286047005.5,N
1577415275.3,286047003.7,N
1577415295.2,286047003.4,N
1577415315.9,286047005.4,N
1577415335.7,286047003.8,N
1577415355.6,286047001.9,N
1577415375.4,286046999.7,N
1577415395.2,286046998.2,N
1577415415.1,286047000.8,N
1577415416.0,286047000.8,N
1577415435.8,286046999.8,N
1577415455.7,286047002.8,N
1577415475.5,286046998.6,N
1577415495.3,286046996.8,N
1577415515.2,286046998.8,N
1577415535.0,286046999.2,N
1577415535.9,286046999.2,N
1577415555.8,286046996.9,N
1577415575.6,286047002.4,N
1577415595.4,286047002.1,N
